User: anonymous   Login
Location: Aalen
(48.8330°N, 10.1000°E)
Time: 14:13:58
(UTC+02:00)
Language:

POLYITAN 1 - Orbit

View from above orbital plane
View from above orbital plane
View from above satellite
View from above satellite

Ground track
Ground track

The orbit data is extracted from the following two-line orbital elements,

1 40042U 14033AJ  21264.07734376  .00000506  00000-0  59281-4 0  9993
2 40042  97.9439 195.9201 0013533 210.9679 149.0741 14.89363451394050
Epoch (UTC): 21 September 2021 01:51:22
Eccentricity: 0.0013533
inclination: 97.9439°
perigee height: 590 km
apogee height: 609 km
right ascension of ascending node: 195.9201°
argument of perigee: 210.9679°
revolutions per day: 14.89363451
mean anomaly at epoch: 149.0741°
orbit number at epoch: 39405

The dashed part of the orbit path shows where the satellite is in the earth's shadow,  

DLR